Flag for U.S.A. Weather past 2 weeks in Dallas, Texas, U.S.A.

Now
88 °F

Passing clouds.


Feels Like: 92 °F
Forecast: 77 / 94 °F
Wind: No wind

Location: Dallas Love Field

Current Time: Aug 27, 2014 at 12:25:11 PM

Latest Report: Aug 27, 2014 at 10:53 AM


Visibility: 10 mi

Pressure: 30.05 "Hg

Humidity: 54%

Dew point: 69 °F

Location of DallasLocation

Historic Weather in Dallas — Graph

°F

Dallas temperature yesterday

Maximum temperature yesterday: 96 °F (at 3:53 PM)
Minimum temperature yesterday: 81 °F (at 5:53 AM)
Average temperature yesterday: 88 °F

Past Weeks' High & Low Weather Summary

 TemperatureHumidityPressure
High100 °F (Aug 16, 1:53 PM)91% (Aug 17, 7:59 AM)30.09 "Hg (Aug 17, 7:59 AM)
Low70 °F (Aug 13, 6:53 AM)26% (Aug 12, 6:53 PM)29.81 "Hg (Aug 19, 6:53 PM)
Average86 °F55%29.93 "Hg
* Reported Aug 12 9:53 AM — Aug 27 9:53 AM, Dallas, Weather by CustomWeather, © 2014

Note: Actual official high and low records may vary slightly from our data, if they occured in-between our weather recording intervals... More about our weather records

Advertising

Dallas weather history for previous 24 hours

 ConditionsComfort  
Time TempWeatherWind HumidityBarometerVisibility
9:53 AM
Aug 27
86 °FSunny.3 mph59%30.04 "Hg10 mi
8:53 AM83 °FSunny.No wind68%30.03 "Hg10 mi
7:53 AM81 °FClear.6 mph72%30.02 "Hg10 mi
6:53 AM80 °FPassing clouds.6 mph71%30.01 "Hg10 mi
5:53 AM80 °FPassing clouds.6 mph74%29.99 "Hg10 mi
4:53 AM80 °FPassing clouds.7 mph71%29.99 "Hg10 mi
3:53 AM81 °FPassing clouds.7 mph69%29.99 "Hg10 mi
2:53 AM82 °FPassing clouds.8 mph67%29.99 "Hg10 mi
1:53 AM84 °FClear.8 mph63%29.99 "Hg10 mi
12:53 AM85 °FPassing clouds.9 mph59%30.00 "Hg10 mi
11:53 PM
Aug 26
86 °FPassing clouds.9 mph57%29.99 "Hg10 mi
10:53 PM87 °FPassing clouds.13 mph53%29.98 "Hg10 mi
9:53 PM89 °FPassing clouds.13 mph50%29.96 "Hg10 mi
8:53 PM91 °FPassing clouds.9 mph47%29.95 "Hg10 mi
7:53 PM92 °FPassing clouds.10 mph43%29.93 "Hg10 mi
6:53 PM94 °FPassing clouds.13 mph40%29.91 "Hg10 mi
5:53 PM95 °FScattered clouds.10 mph40%29.91 "Hg10 mi
4:53 PM95 °FScattered clouds.9 mph41%29.93 "Hg10 mi
3:53 PM96 °FBroken clouds.9 mph43%29.94 "Hg10 mi
2:53 PM95 °FBroken clouds.13 mph44%29.96 "Hg10 mi
1:53 PM94 °FBroken clouds.7 mph46%29.98 "Hg10 mi
12:53 PM91 °FBroken clouds.5 mph52%30.00 "Hg10 mi
Weather by CustomWeather, © 2014

See weather overviewHow to use our weather pages